Location: ????????
(60.4333°N, 46.4710°E)
Time: 19:53:19
(UTC+00:00)

ARGOS - Pass Details

Date: 25 November 2020
Orbit: 820 x 835 km, 98.4° (Epoch: 17 January)

Event Time Altitude Azimuth Distance (km) Brightness Sun altitude
Exits shadow 16:38:12 34° 225° (SW) 1,337 4.4 -32.4°
Maximum altitude 16:39:43 42° 263° (W) 1,178 4.2 -32.6°
Drops below altitude 10° 16:44:52 10° 334° (NNW) 2,449 6.0 -33.2°
Sets 16:47:22 0° 342° (NNW) 3,385 6.8 -33.5°
